This is the latest recevied weather packets stored in our database for station/object WA6OOO. If no packets are shown the sender has not sent any weather packets the latest 10 day(s).
| Time | Temp. | Humidity | Pressure | Rain* | Wind** | Luminosity | Snow |
|---|---|---|---|---|---|---|---|
| 1788200268 | 23.89° C | 70% | 1017.6 hPa | 0 mm | - | 635 W/m² | - |
| 1788199963 | 23.89° C | 70% | 1017.9 hPa | 0 mm | - | 626 W/m² | - |
| 1788199663 | 23.33° C | 70% | 1017.8 hPa | 0 mm | - | 618 W/m² | - |
| 1788199358 | 23.89° C | 71% | 1017.7 hPa | 0 mm | - | 609 W/m² | - |
| 1788199057 | 23.89° C | 70% | 1017.7 hPa | 0 mm | - | 598 W/m² | - |
| 1788198753 | 23.33° C | 71% | 1017.6 hPa | 0 mm | - | 588 W/m² | - |
| 1788198448 | 23.89° C | 70% | 1017.6 hPa | 0 mm | - | 578 W/m² | - |
| 1788198144 | 23.89° C | 71% | 1017.8 hPa | 0 mm | - | 567 W/m² | - |
| 1788197843 | 23.89° C | 70% | 1017.6 hPa | 0 mm | - | 556 W/m² | - |
| 1788197539 | 23.33° C | 72% | 1017.6 hPa | 0 mm | - | 544 W/m² | - |
| 1788197239 | 23.33° C | 71% | 1017.6 hPa | 0 mm | - | 533 W/m² | - |
| 1788196941 | 23.33° C | 72% | 1017.5 hPa | 0 mm | - | 524 W/m² | - |
| 1788196628 | 22.78° C | 74% | 1017.4 hPa | 0 mm | - | 509 W/m² | - |
| 1788196326 | 22.78° C | 74% | 1017.4 hPa | 0 mm | - | 494 W/m² | - |
| 1788196022 | 22.78° C | 74% | 1017.4 hPa | 0 mm | - | 484 W/m² | - |
| 1788195718 | 22.22° C | 75% | 1017.2 hPa | 0 mm | - | 470 W/m² | - |
| 1788195414 | 22.22° C | 75% | 1017.4 hPa | 0 mm | - | 458 W/m² | - |
| 1788195110 | 22.78° C | 74% | 1017.4 hPa | 0 mm | - | 442 W/m² | - |
| 1788194806 | 22.22° C | 75% | 1017.3 hPa | 0 mm | - | 431 W/m² | - |
| 1788194502 | 21.67° C | 77% | 1017.2 hPa | 0 mm | - | 418 W/m² | - |
| 1788194197 | 22.22° C | 77% | 1017.2 hPa | 0 mm | - | 403 W/m² | - |
| 1788193893 | 21.11° C | 79% | 1017.2 hPa | 0 mm | - | 388 W/m² | - |
| 1788193593 | 21.11° C | 79% | 1017 hPa | 0 mm | - | 374 W/m² | - |
| 1788193290 | 21.11° C | 79% | 1017.2 hPa | 0 mm | - | 361 W/m² | - |
| 1788192986 | 21.11° C | 80% | 1017.1 hPa | 0 mm | - | 345 W/m² | - |
* Rain latest hour (hover to see other rain measurements)
** Current wind speed in m/s (hover to see current wind gust speed)